Regional Weather Roundup
Issued by NWS

Home | Current Version | Previous Version | Graphics & Text | Print | Product List | Glossary On
Versions: 1 2 3 4 5 6 7 8 9 10 11 12 13 14 15 16 17 18 19 20 21 22 23 24 25 26 27 28 29 30 31 32 33 34 35 36 37 38 39 40 41 42 43 44 45 46 47 48 49 50
000
ASUS43 KMKX 221713
RWRWI

WISCONSIN REGIONAL WEATHER ROUNDUP
NATIONAL WEATHER SERVICE MILWAUKEE/SULLIVAN WI
1200 PM CDT FRI MAY 22 2015

NOTE: "FAIR" INDICATES FEW OR NO CLOUDS BELOW 12,000 FEET WITH NO
SIGNIFICANT WEATHER AND/OR OBSTRUCTIONS TO VISIBILITY.

WIZ001-002-006>008-014>016-023>028-221800-
NORTHWEST WISCONSIN

CITY           SKY/WX    TMP DP  RH WIND       PRES   REMARKS
SUPERIOR ARPT  SUNNY     61  38  42 NE7       30.21F
ASHLAND        SUNNY     66  35  31 VRB5      30.22S
HAYWARD        SUNNY     65  27  23 VRB5      30.22S
SIREN          SUNNY     65  28  25 NE6       30.22R
CUMBERLAND     SUNNY     63  30  29 CALM      30.22S
RICE LAKE      SUNNY     64  28  24 N5        30.23S
CHETEK         SUNNY     63  33  32 CALM      30.22S
LADYSMITH      SUNNY     63  33  31 CALM      30.23S
EAU CLAIRE     SUNNY     66  32  28 VRB5      30.23R
MENOMONIE      SUNNY     66  31  26 SW3       30.22R
NEW RICHMOND   SUNNY     66  30  26 E7        30.23R
OSCEOLA        SUNNY     67  35  30 CALM      30.25R
$$

WIZ003>005-009-010-017-018-221800-
NORTH CENTRAL WISCONSIN

CITY           SKY/WX    TMP DP  RH WIND       PRES   REMARKS
MANITOWISH WTR SUNNY     59  26  28 NW9G17    30.21R
ARBOR VITAE    SUNNY     60  26  27 N10G22    30.21S
WOODRUFF       SUNNY     60  26  27 N10G22    30.21S
RHINELANDER    SUNNY     61  27  27 NW13      30.22R
EAGLE RIVER    SUNNY     60  18  19 W3        30.20S
LAND O LAKES   SUNNY     60  13  15 NW13      30.22R
PHILLIPS       SUNNY     61  31  31 N3        30.21S
TOMAHAWK       SUNNY     61  26  26 N3        30.21S
MEDFORD        SUNNY     61  33  35 N5        30.21S
MERRILL        SUNNY    N/A N/A N/A CALM      30.21F
$$

WIZ029-030-035-036-043>047-221800-
CENTRAL WISCONSIN

CITY           SKY/WX    TMP DP  RH WIND       PRES   REMARKS
WAUSAU         SUNNY     63  31  30 VRB7      30.20S
MOSINEE        SUNNY     63  34  34 VRB6      30.23S
MARSHFIELD     SUNNY     65  33  30 VRB3      30.23R
STEVENS POINT  SUNNY     60  31  32 NW6       30.22S
WAUPACA        SUNNY     64  27  24 CALM      30.22S
WAUTOMA        NOT AVBL
WISC RAPIDS    SUNNY     64  24  21 CALM      30.24R
CAMP DOUGLAS   NOT AVBL
$$

WIZ011>013-019>022-031-037>040-048>050-221800-
NORTHEAST WISCONSIN

CITY           SKY/WX    TMP DP  RH WIND       PRES   REMARKS
ANTIGO         SUNNY     59  32  35 N8G16     30.21S
SHAWANO        SUNNY     63  32  31 SW8       30.22S
OCONTO         SUNNY     57  34  42 E6        30.23R
STURGEON BAY   SUNNY     55  25  30 NW3       30.27R
GREEN BAY      SUNNY     61  29  29 VRB6      30.23S
MANITOWOC      NOT AVBL
APPLETON       NOT AVBL
CLINTONVILLE   SUNNY     63  28  27 CALM      30.22S
OSHKOSH        SUNNY     60  33  36 CALM      30.23S
$$

WIZ032>034-041-042-053>061-221800-
SOUTHWEST WISCONSIN

CITY           SKY/WX    TMP DP  RH WIND       PRES   REMARKS
LA CROSSE      SUNNY     69  39  33 CALM      30.21S
SPARTA         SUNNY     67  35  30 W9        30.23R
VIROQUA        SUNNY     66  35  32 CALM      30.22S
BOSCOBEL       SUNNY     71  39  31 NW5       30.21F
PRAIRIE DU CHI SUNNY     68  42  38 CALM      30.21F
PLATTEVILLE    SUNNY     67  39  35 S5        30.22S
$$

WIZ056-057-062-063-064-067-068-221800-
SOUTH CENTRAL WISCONSIN

CITY           SKY/WX    TMP DP  RH WIND       PRES   REMARKS
REEDSBURG      SUNNY     64  37  37 SW5       30.23R
BARABOO/DELLS  SUNNY     64  31  29 CALM      30.23R
LONE ROCK      NOT AVBL
MINERAL POINT  SUNNY     66  32  28 CALM      30.23S
MADISON        MOSUNNY   64  34  32 SE3       30.23R
MIDDLETON      SUNNY     66  27  23 SE6       30.24R
WATERTOWN      SUNNY     63  36  37 S3        30.23R
MONROE         SUNNY     64  37  36 CALM      30.22S
JANESVILLE     SUNNY     68  30  24 SE6       30.22R
$$

WIZ051-052-058>065-066-070>072-221800-
SOUTHEAST WISCONSIN

CITY           SKY/WX    TMP DP  RH WIND       PRES   REMARKS
MILWAUKEE      SUNNY     54  30  40 E7        30.27R
WAUKESHA       SUNNY     61  30  31 E6        30.25R
MILWAUKEE/TIMM SUNNY     57  18  21 SE6       30.26R
RACINE         SUNNY     56  29  35 NE7       30.28R
BURLINGTON     SUNNY     62  29  29 SE8       30.24R
KENOSHA        SUNNY     59  31  34 E7        30.26R
FOND DU LAC    SUNNY     65  34  31 VRB3      30.24R
SHEBOYGAN      SUNNY     58  31  35 VRB3      30.24S
WEST BEND      SUNNY     59  28  31 E5        30.23S
JUNEAU         SUNNY     60  33  35 CALM      30.25R
$$

LSZ147-162-221800-
LAKE SUPERIOR

STATION/POSITION TIME  TEMP    WIND        PRES    WAVE
                       AIR SEA DIR/SP/G            HT/PER
                 (UTC) (F)     (DEG/KT/KT) (MB)    (FT/S)
W MID LAKE BUOY  1550   37 36   90/  4/  6   N/A     0
DEVILS ISLAND    1600   41      80/  4/  5   N/A
PORT WING        1640   47      30/  3/  4   N/A
SAXON HARBOR     1600   52        CALM       N/A
$$

LMZ867-665-643>646-221800-
LAKE MICHIGAN

STATION/POSITION TIME  TEMP    WIND        PRES    WAVE
                       AIR SEA DIR/SP/G            HT/PER
                 (UTC) (F)     (DEG/KT/KT) (MB)    (FT/S)
CHAMBERS ISLAND  1600   47      60/  5/  7   N/A
N MID LAKE BUOY  1550   38 36   60/  6/  8   N/A     1
NORTHPORT PIER   1500   45      80/  7/  9   N/A
SISTER BAY       1617   55        CALM       N/A
KEWAUNEE LAKESHO 1600   46      90/  7/  9   N/A
SHEBOYGAN LAKESH 1600           70/  4/  5   N/A
PORT WASHINGTON  1640   48      90/  3/  4   N/A
ATWATER BUOY     1600   45 44   10/  6/  8   N/A
MILWAUKEE LAKESH 1600   45      30/  9/ 10   N/A
S MID LAKE BUOY  1550   40 38  350/  6/  6   N/A     1
KENOSHA   LAKESH 1600   46      30/  9/ 11   N/A
$$

TC  - TEMPERATURE IN CELSIUS
VSB - VISIBILITY IN STATUTE MILES
WCI - WIND CHILL INDEX
HX  - HEAT INDEX



USA.gov is the U.S. government's official web portal to all federal, state and local government web resources and services.